Wind_Gust
28 28 28 27 27 27 27 27 27 26 25 24 24 23 22 23 22 21 20 20 20 20 20 20 20 21 21 22 22 20 20 16 13 13 13 14 9 7 8 8 9 8 7 12 10 13 13 12 12 11 13 14 14 13 11 8 10 15 20 20 20 18 19 15 18 18 19 21 18 15 14 18 18 15 15 16 23 22 20 22 21 22 23 21 20 18 19 19
27 28 28 28 28 28 28 28 28 27 26 25 24 23 22 22 22 21 21 20 20 20 20 20 20 19 20 20 21 17 19 17 13 15 18 9 8 11 8 7 7 7 10 12 10 11 13 13 11 12 15 16 9 15 13 15 13 16 17 14 21 16 21 15 19 15 16 18 17 15 10 16 18 12 13 17 16 17 24 20 19 23 21 21 20 19 19 20
27 28 27 27 28 28 28 29 29 28 27 26 25 23 22 22 21 21 21 20 20 19 20 20 20 19 19 18 18 17 15 13 13 17 13 8 10 9 9 7 6 6 14 13 8 10 10 10 10 13 11 18 12 18 11 19 14 12 14 20 21 19 20 17 15 18 17 17 18 17 16 16 14 11 14 17 19 17 20 21 18 19 20 20 21 19 20 23
27 27 27 27 27 28 28 28 29 28 27 26 25 23 22 21 21 21 21 20 19 20 20 20 19 19 19 18 18 21 16 16 16 13 13 10 10 10 9 8 7 11 11 9 9 9 8 11 10 12 14 14 16 11 17 15 18 16 14 19 22 19 22 18 15 15 12 9 17 16 16 17 14 14 16 22 22 17 18 18 17 20 20 20 20 20 21 24
26 27 27 27 27 27 27 28 29 29 27 27 25 23 22 22 21 21 21 20 19 20 19 20 20 19 17 17 20 16 16 21 15 8 17 10 12 11 10 8 8 12 10 11 11 9 10 11 13 10 13 22 14 14 16 12 14 11 20 18 18 14 19 15 17 12 12 8 14 16 17 19 18 17 14 14 15 19 19 18 18 19 20 21 21 22 23 23
27 27 27 27 27 27 28 28 29 29 27 26 25 24 22 21 21 21 20 20 19 19 19 19 20 18 17 15 22 14 19 12 13 10 10 9 12 11 9 9 9 14 9 9 9 10 12 13 15 17 17 17 16 19 15 11 12 18 15 17 11 14 18 12 16 13 10 14 14 13 17 18 17 18 17 21 22 21 19 18 19 20 20 20 18 19 21 22
27 27 28 29 28 29 29 30 30 29 28 26 25 24 22 21 21 20 20 20 19 19 18 18 18 19 19 19 16 15 17 22 9 14 13 9 9 11 10 10 10 14 12 10 12 13 13 13 12 14 14 15 12 22 14 12 11 12 23 15 14 8 15 13 14 9 11 11 15 18 17 20 22 19 17 24 21 21 19 19 19 19 19 19 21 20 22 22
28 28 28 29 29 28 29 29 30 29 27 26 25 24 22 20 20 20 20 19 18 18 17 16 16 16 18 16 16 13 14 17 13 12 9 14 14 13 13 12 11 10 13 16 14 14 10 19 13 11 14 18 17 18 16 16 11 19 20 12 15 10 14 14 13 13 15 17 18 18 19 16 15 22 19 22 19 19 19 18 19 19 19 20 22 22 21 21
28 28 29 29 28 29 29 30 30 29 26 25 24 23 22 20 19 19 19 19 17 17 16 15 14 12 9 14 13 13 19 14 13 10 15 15 14 13 14 10 10 11 13 14 13 12 10 14 10 16 19 19 14 20 16 17 19 11 16 13 14 14 14 15 16 14 15 16 20 27 21 22 25 24 23 19 18 18 19 19 19 19 20 21 22 22 22 21
28 29 29 29 28 28 30 31 31 29 28 26 25 23 23 20 19 18 18 18 16 15 15 14 13 12 14 15 14 15 14 10 8 10 12 11 11 12 11 10 10 12 12 14 13 15 17 17 13 10 14 17 11 15 10 15 22 12 15 14 15 15 15 13 16 15 13 14 18 27 21 23 19 14 20 16 18 18 19 19 18 19 21 20 20 21 21 23
29 29 29 30 30 28 31 31 31 30 29 28 26 24 22 21 19 18 17 17 16 14 12 12 10 13 14 13 13 21 9 8 10 11 13 10 11 10 8 8 9 9 10 12 14 14 12 13 10 10 13 18 15 17 11 16 13 14 16 16 15 15 17 16 16 16 17 16 13 25 21 18 16 14 23 21 18 18 20 20 19 19 21 21 21 21 21 22
29 30 31 31 31 30 30 31 31 31 29 27 24 21 20 19 19 17 16 15 14 13 11 10 8 12 14 15 20 19 12 7 8 9 13 12 11 9 10 8 9 10 11 11 12 11 11 12 11 13 16 17 16 16 16 11 11 14 13 18 15 16 19 17 16 15 13 20 14 19 22 18 15 19 23 21 18 18 19 21 20 21 21 21 21 21 22 22
29 30 29 31 32 31 31 32 32 32 29 25 22 21 18 18 18 17 15 12 10 9 6 5 7 11 12 12 19 13 9 8 9 8 10 12 10 8 9 9 9 10 11 10 10 9 9 11 13 11 13 12 15 15 18 11 15 14 13 13 17 17 19 17 13 13 15 17 15 20 21 19 19 21 21 21 20 20 20 20 20 20 21 21 20 21 21 21
29 29 29 31 32 32 30 32 34 32 26 25 23 20 16 16 16 16 14 13 10 9 7 6 13 12 12 22 12 10 7 10 10 12 9 9 12 12 9 8 7 8 7 8 7 8 9 10 12 13 9 9 16 15 18 17 16 20 13 17 14 19 18 16 13 14 17 16 15 17 17 17 20 20 21 20 21 21 21 20 20 20 20 19 19 20 22 21
30 30 30 31 32 32 31 32 33 29 25 24 23 19 15 13 12 11 10 8 8 7 8 8 12 12 12 20 9 11 7 11 12 15 12 9 9 13 11 9 8 9 8 7 8 8 9 9 12 16 16 10 17 17 19 17 14 14 23 17 13 21 22 16 13 15 16 24 16 18 19 16 21 22 21 20 21 19 21 21 20 20 20 19 19 19 20 21
30 31 31 31 31 31 31 31 30 30 27 24 24 20 10 6 6 8 6 6 9 10 13 12 11 14 10 22 15 7 11 10 14 13 11 10 10 11 10 7 9 11 11 10 8 9 9 13 15 11 15 15 17 19 16 19 18 17 22 10 11 13 15 14 14 11 11 15 17 18 16 20 20 23 22 20 21 20 21 21 20 20 19 19 19 18 19 20
31 31 31 30 30 30 31 31 30 31 28 26 24 10 6 5 8 8 8 11 10 11 12 11 10 12 13 16 13 11 13 12 10 9 10 10 9 8 8 9 11 9 11 13 11 11 11 14 13 15 13 16 12 15 17 16 13 15 12 14 9 17 12 15 16 11 14 13 16 15 19 15 19 25 24 22 21 21 21 21 20 19 18 18 18 18 18 18
30 31 31 31 31 30 32 32 31 29 27 23 15 7 9 6 10 11 8 10 10 11 12 12 12 13 26 13 11 15 13 11 12 11 8 11 8 8 7 8 9 10 13 15 13 16 14 16 21 14 17 15 16 16 17 13 13 9 12 11 16 15 12 15 13 12 12 14 18 15 18 17 20 25 25 23 21 20 20 21 20 19 19 18 17 17 16 17
30 30 31 30 30 30 30 31 31 29 25 21 10 8 8 8 14 15 13 13 15 13 14 15 12 13 22 15 10 10 11 11 10 10 10 8 10 10 12 8 10 14 16 17 19 14 17 14 16 17 18 18 17 13 14 14 11 10 12 13 14 16 15 12 11 10 12 13 14 11 17 18 22 24 25 23 21 20 19 19 20 20 19 18 17 17 16 16
30 31 32 31 29 29 30 31 31 29 24 16 12 12 14 18 18 13 14 10 15 15 13 13 10 10 13 11 14 16 10 10 11 11 10 8 12 10 10 9 11 15 14 13 19 12 12 18 16 12 12 12 13 12 14 11 10 11 11 12 15 14 13 11 9 10 9 15 13 12 14 16 21 23 24 23 21 19 20 20 20 19 18 17 17 17 16 13
30 31 32 33 32 30 31 31 31 28 21 16 16 17 17 19 14 17 16 15 12 10 11 10 11 12 15 15 12 14 11 15 10 13 11 10 12 13 12 14 15 19 14 11 9 13 17 16 12 14 14 12 11 10 12 13 9 12 13 13 16 12 16 12 9 11 10 17 13 11 16 15 18 21 23 22 22 22 22 21 19 19 18 16 16 16 15 13
31 31 32 34 34 31 30 31 30 25 20 15 15 19 15 16 13 14 14 16 13 9 8 10 8 11 10 12 9 10 15 15 16 13 10 13 10 18 13 16 12 12 12 13 15 19 18 14 16 13 12 12 12 12 10 9 10 10 16 13 17 14 10 11 10 12 10 16 14 14 15 15 16 19 21 22 23 22 21 21 21 20 19 18 17 15 12 12
29 31 31 34 34 30 30 30 26 20 16 13 18 14 16 15 13 11 13 14 13 10 9 11 9 13 12 12 11 11 9 16 15 17 19 15 9 16 12 12 12 11 14 14 16 15 15 16 16 13 9 13 15 12 13 13 12 14 13 16 18 15 17 15 18 10 12 15 17 16 15 14 15 16 18 20 23 19 18 19 19 19 19 18 18 15 15 12
29 30 31 33 34 33 30 30 27 15 13 12 16 17 11 13 13 12 13 13 15 14 13 12 11 14 15 12 12 12 13 14 13 16 16 17 15 9 12 13 9 10 12 10 14 16 19 17 11 9 11 12 15 11 12 14 14 10 13 16 20 11 13 20 14 11 12 17 13 16 15 17 19 20 22 21 18 20 21 20 20 18 15 17 15 15 14 14
29 30 30 32 33 34 35 27 11 12 10 10 14 12 11 12 12 11 14 14 14 16 9 11 8 15 13 9 10 11 15 16 16 13 13 16 14 12 16 8 15 14 11 9 12 18 18 14 8 9 11 10 12 13 12 14 18 11 12 13 15 13 16 11 11 14 18 17 17 13 17 17 17 18 21 23 25 23 23 23 21 19 19 19 18 16 15 14
28 30 30 30 32 34 32 11 11 12 12 11 13 12 12 13 9 11 15 12 17 20 14 11 11 11 13 10 11 9 13 15 12 14 12 13 11 14 14 14 21 13 10 8 14 18 16 10 9 9 14 13 12 13 11 13 15 18 16 10 10 13 14 14 14 16 19 20 15 14 19 14 20 19 19 21 24 27 23 22 21 20 20 20 19 17 15 14
28 29 29 27 26 29 17 12 13 13 12 13 10 13 14 12 8 13 16 16 14 16 14 17 16 18 16 12 12 10 15 16 12 11 11 13 10 9 15 16 14 11 8 9 18 16 10 12 11 9 11 11 14 12 13 12 19 17 13 10 12 14 14 15 16 18 20 14 15 16 18 22 20 20 20 18 21 24 18 20 19 23 20 20 18 17 15 15
29 29 28 26 24 18 12 17 16 11 16 12 14 15 15 9 11 12 17 12 15 11 13 15 16 11 12 9 9 12 17 10 13 13 10 13 13 12 16 15 17 11 8 15 10 17 8 12 8 10 9 16 16 16 10 11 18 17 11 10 11 14 13 14 17 18 14 14 20 20 13 23 20 15 15 17 21 26 24 28 28 23 23 20 19 19 16 14
29 29 27 24 25 16 15 12 13 14 13 13 14 16 11 10 14 17 13 15 15 12 14 11 14 10 14 10 14 9 9 13 12 12 11 9 17 15 12 13 10 12 9 15 16 17 15 12 11 11 17 14 14 12 10 11 16 14 10 13 12 12 13 14 18 18 11 16 20 12 13 20 21 17 18 17 21 22 23 23 26 27 25 20 21 18 17 14
30 28 27 23 21 12 12 9 13 11 11 13 15 13 9 12 14 15 10 7 15 12 12 13 16 14 14 8 15 13 9 14 9 13 15 11 15 15 14 9 9 11 17 15 17 16 16 11 9 14 13 13 10 11 9 9 9 10 11 14 13 14 11 12 14 16 15 16 19 13 9 10 21 14 15 20 17 15 16 18 17 18 19 19 18 18 17 16
31 28 25 19 13 13 11 10 14 10 12 13 15 11 12 17 13 10 9 13 12 15 14 9 16 12 13 11 14 12 12 11 13 13 13 14 14 13 13 16 14 15 14 16 16 14 13 12 12 14 9 7 10 11 12 8 10 13 14 15 14 14 14 14 13 12 16 17 16 10 9 12 17 11 13 14 13 14 15 15 18 19 20 19 18 18 16 13
27 27 25 19 13 13 12 17 15 13 14 15 13 13 13 10 15 12 9 13 15 14 14 14 10 11 10 12 13 17 12 12 14 14 13 13 12 14 17 17 16 14 11 10 15 13 15 11 14 14 11 13 9 18 18 15 15 18 14 16 13 11 13 13 16 13 18 12 14 11 11 15 17 14 13 13 14 16 16 14 18 19 19 18 16 13 12 13
28 28 28 15 11 11 12 13 13 13 14 13 12 13 14 14 7 11 11 11 10 13 12 10 13 11 8 9 15 12 9 12 11 11 9 10 11 16 11 14 12 14 17 11 9 13 14 12 13 14 10 11 13 21 14 16 13 16 17 15 15 16 11 11 12 8 16 15 11 12 10 20 14 12 13 12 12 13 14 15 14 16 19 20 17 14 14 13
28 26 19 10 15 13 12 11 12 13 13 9 13 14 17 16 7 10 9 11 13 7 8 12 10 10 13 13 12 14 10 11 10 10 12 7 11 9 14 12 11 9 11 10 14 14 11 15 18 16 15 14 12 16 15 16 16 14 12 18 16 13 14 13 11 12 10 13 12 9 15 9 15 16 10 12 12 11 12 15 15 17 18 15 15 13 13 14
31 21 12 9 13 16 15 12 10 9 12 12 20 16 13 9 9 10 11 11 11 8 8 9 9 9 13 13 10 10 12 10 12 9 13 12 9 9 11 13 12 13 9 15 14 16 11 16 16 13 12 11 12 11 11 11 15 9 12 15 16 8 12 18 15 16 16 15 13 16 13 15 15 13 12 12 13 12 13 15 16 18 16 14 14 14 15 15
20 14 11 9 9 9 9 10 9 11 12 13 19 15 11 12 11 10 13 12 8 9 9 10 11 9 10 11 9 9 9 12 12 12 9 9 11 10 10 11 13 15 18 14 11 15 12 11 15 14 10 14 15 10 10 14 13 14 17 13 17 13 15 12 9 10 9 16 12 8 16 14 14 19 15 15 14 14 15 16 17 18 17 14 15 14 14 14
14 17 11 10 9 12 9 11 11 12 15 18 18 10 13 13 15 10 9 11 11 12 10 13 14 13 8 10 10 11 12 10 10 15 11 10 13 10 9 12 10 8 13 18 8 9 18 15 13 11 12 12 10 10 11 11 15 17 14 16 12 10 14 13 15 9 14 14 10 12 14 16 14 11 17 17 16 17 18 18 18 17 18 17 16 14 14 14
14 10 9 9 13 13 9 10 11 13 14 16 13 6 9 12 10 11 11 9 9 10 12 10 11 10 8 10 11 12 13 17 16 10 11 9 13 10 7 9 11 11 11 8 15 11 12 16 18 11 9 13 10 10 12 11 10 16 15 11 17 10 9 14 11 10 12 9 14 10 13 17 15 12 17 19 21 19 19 19 19 18 18 17 16 15 14 12
10 11 9 12 11 15 9 10 13 13 13 19 15 11 11 12 10 11 11 9 8 9 12 12 10 9 12 9 11 7 14 18 11 11 12 11 12 10 11 12 10 8 6 10 13 11 9 15 16 13 12 10 12 13 13 15 15 12 13 12 9 15 15 11 11 15 17 14 8 9 13 13 15 16 13 16 20 20 18 19 19 19 18 16 15 14 14 14
10 13 10 9 13 13 8 10 13 16 17 11 11 15 10 10 12 11 10 9 8 11 10 7 8 7 7 10 10 12 9 11 13 11 12 10 11 12 8 7 10 9 8 8 10 9 7 9 12 21 9 12 17 16 13 11 12 12 15 10 12 13 11 15 10 12 14 16 12 13 14 14 18 16 14 14 16 18 20 21 18 17 16 14 12 12 11 9
7 11 10 10 18 12 11 19 20 14 14 13 11 13 8 11 11 12 10 8 9 9 11 8 10 11 9 8 9 8 8 8 9 9 10 11 12 7 11 9 6 7 9 12 11 10 10 10 12 10 14 17 13 12 11 9 10 14 15 8 15 10 8 11 8 13 9 13 13 15 17 15 19 13 13 12 14 16 18 18 18 17 15 14 14 12 10 10
11 9 11 16 16 12 15 12 15 9 10 12 13 8 11 8 9 12 10 10 9 9 7 11 9 7 7 8 10 7 11 9 8 9 8 13 10 13 11 6 6 9 17 11 16 10 13 15 13 10 10 13 13 12 9 9 8 10 14 12 13 10 14 13 14 9 11 10 13 14 14 13 16 13 11 9 10 13 14 16 16 15 14 14 14 11 9 9
9 10 8 12 14 13 15 16 10 9 12 13 9 10 9 9 10 9 11 12 10 9 8 10 10 9 8 9 7 8 8 11 9 10 10 8 8 13 11 6 8 9 15 9 11 12 8 15 9 10 9 11 12 11 10 9 9 13 12 9 9 8 8 13 13 10 17 9 12 9 13 18 16 11 8 9 9 11 11 13 15 14 14 14 14 11 11 10
7 7 11 10 12 10 15 5 10 9 15 11 8 13 9 10 12 12 12 13 13 10 9 8 9 9 8 7 8 11 7 7 8 11 9 8 8 11 8 8 9 10 13 14 16 14 10 11 15 10 10 13 17 16 17 10 12 15 14 9 8 8 8 10 12 9 15 8 10 15 15 13 16 10 10 9 10 13 15 16 15 15 14 15 14 11 11 10
8 9 7 17 19 15 11 11 9 11 12 12 12 12 13 10 10 10 10 12 9 10 10 9 11 7 7 7 7 7 7 10 13 8 9 8 8 11 10 9 8 9 8 9 6 12 12 9 12 13 10 9 9 9 10 6 8 8 7 8 9 7 9 8 12 8 18 12 9 13 17 16 15 9 9 10 10 11 13 14 15 15 14 15 12 11 11 11
11 6 14 12 20 16 16 8 10 9 14 13 7 10 8 10 12 8 9 11 10 8 11 8 9 7 8 9 10 9 10 8 12 9 11 8 8 12 9 8 10 9 8 10 10 9 9 8 11 11 13 13 13 13 10 11 8 11 4 10 11 10 11 7 12 17 15 9 15 12 14 16 19 14 13 13 12 13 14 15 16 17 16 16 13 12 12 12
10 8 6 7 14 16 15 11 9 8 9 9 7 8 10 8 9 11 8 8 10 10 8 10 9 9 7 8 8 9 8 10 10 12 11 11 9 9 10 7 10 9 13 13 9 12 11 13 9 10 11 13 13 12 9 11 8 7 6 6 8 9 7 7 15 15 10 15 19 17 10 6 16 15 12 13 14 14 15 14 15 16 16 15 12 12 10 13
9 9 8 11 10 10 10 9 10 12 10 9 10 8 8 9 9 8 10 9 7 8 10 11 10 10 9 9 9 9 7 9 9 9 9 11 11 9 10 11 10 12 15 13 11 13 13 12 11 10 10 12 12 15 12 13 14 12 11 8 9 10 8 12 12 9 12 16 22 12 14 13 19 17 14 14 15 16 17 18 14 12 12 11 12 14 14 14
11 12 9 9 9 11 13 12 8 9 12 8 11 9 9 9 9 8 8 10 9 8 10 3 7 10 9 7 9 8 7 8 7 7 11 11 11 12 14 9 9 11 15 12 13 9 16 14 10 12 14 12 13 14 12 15 14 15 15 15 9 14 16 14 10 12 11 11 16 16 17 21 23 21 17 13 12 12 11 8 10 13 15 15 15 15 15 14
11 9 11 8 12 13 10 9 8 10 10 9 7 9 8 9 9 10 9 8 6 8 7 8 8 9 8 6 7 10 9 10 11 9 9 13 13 13 14 13 10 11 12 11 10 10 13 9 7 13 17 16 9 12 11 13 14 17 16 10 6 5 4 6 6 6 4 12 13 17 18 21 21 15 16 9 9 10 11 14 16 15 14 14 15 15 14 14
9 10 10 13 13 12 11 10 11 10 8 12 12 11 10 9 8 7 8 8 8 8 7 7 8 8 8 7 7 9 9 9 9 10 11 12 16 12 13 10 10 11 10 11 13 12 13 11 12 14 15 17 9 12 12 13 15 11 13 8 7 10 7 10 13 13 10 12 6 4 9 18 16 12 9 10 11 13 16 15 15 14 14 14 15 15 14 12
7 7 9 12 9 9 10 10 9 10 9 9 8 11 9 10 8 8 8 7 7 8 9 9 6 13 9 10 8 7 10 11 12 13 16 17 17 17 17 19 17 15 14 13 10 16 15 16 12 11 17 16 7 12 14 17 16 16 11 9 18 9 2 4 10 9 12 12 13 12 14 15 12 9 10 12 12 12 13 13 14 13 12 14 15 15 13 12
Wind_Speed
19 20 19 19 19 19 19 19 20 19 19 17 17 17 16 15 14 14 14 14 14 14 14 14 15 14 14 14 14 13 15 7 5 5 6 6 6 3 3 5 5 5 5 5 3 6 5 5 5 4 4 5 4 3 3 0 2 5 6 5 6 6 8 5 6 6 9 9 9 7 6 9 9 7 6 6 9 10 10 11 10 12 13 12 10 9 10 11
19 20 20 19 20 20 20 19 19 19 19 17 17 17 16 14 14 14 14 14 14 14 14 14 14 14 14 13 14 13 12 9 4 7 9 5 4 4 2 4 4 5 7 5 3 4 6 6 4 4 6 5 2 5 5 5 4 5 4 4 7 5 9 7 8 6 6 9 9 7 3 7 9 5 3 5 7 8 10 10 10 13 12 12 12 11 11 12
19 19 19 20 20 21 21 21 20 19 19 18 18 17 15 15 14 14 14 14 14 14 14 14 14 14 14 13 11 14 8 5 5 8 6 7 5 3 2 2 4 3 6 5 2 4 3 3 4 5 2 7 2 7 4 7 4 1 3 6 8 9 9 8 7 8 9 8 8 8 7 7 6 3 5 7 8 8 9 8 8 10 11 11 11 11 12 14
20 19 20 20 20 20 21 21 21 20 19 19 18 16 15 14 14 13 13 13 13 13 13 14 14 14 14 14 11 12 7 8 6 5 6 8 6 3 0 2 4 8 5 2 2 2 0 3 3 4 5 4 6 3 6 5 5 4 4 6 9 9 10 8 7 7 5 2 8 7 7 8 5 5 6 9 9 7 8 8 8 10 11 11 12 12 13 15
21 21 20 22 21 21 21 22 22 21 20 18 18 16 15 15 14 13 13 13 13 13 13 13 14 14 13 12 16 7 8 8 6 1 10 8 6 2 2 4 5 5 4 1 3 2 4 4 5 3 5 8 5 5 6 4 5 2 9 9 9 5 9 7 9 5 4 2 7 8 8 9 8 6 5 5 4 6 7 9 10 11 11 12 12 13 13 14
21 21 21 22 22 22 22 22 23 23 21 20 18 17 15 15 13 13 12 12 12 12 12 13 13 14 14 13 11 6 8 1 2 2 9 7 5 4 4 5 6 7 3 3 1 4 5 6 6 6 5 7 7 7 6 3 2 5 6 8 4 6 8 5 8 6 3 5 5 5 8 9 8 8 7 10 12 10 10 10 11 11 12 11 11 11 13 13
21 21 22 22 22 22 22 22 23 22 21 20 19 16 16 15 14 12 11 11 11 11 12 12 12 14 16 16 7 7 4 8 1 7 10 6 5 5 5 7 8 7 5 3 3 3 2 5 4 5 5 6 3 9 6 5 3 2 8 7 6 2 7 4 7 4 3 4 6 7 8 8 11 10 8 13 12 12 10 10 11 10 10 10 12 12 13 14
21 22 22 23 23 23 22 23 24 22 21 20 19 18 17 15 12 12 11 10 10 10 11 11 11 12 14 8 6 3 5 7 6 5 7 8 7 7 7 5 5 3 6 8 5 5 2 6 4 3 4 6 7 8 8 8 3 8 8 4 7 3 6 5 5 5 7 8 8 9 8 7 6 9 9 12 10 10 10 10 10 10 10 11 12 13 13 13
22 22 23 23 23 23 24 23 23 23 21 20 19 18 15 13 12 10 10 9 9 9 9 9 11 10 6 6 5 4 8 6 6 3 8 8 7 7 7 1 4 4 5 6 6 4 3 5 2 6 8 9 6 11 7 7 6 4 8 5 6 6 6 6 6 6 7 6 8 9 9 9 13 14 12 10 10 10 10 10 10 10 11 11 12 13 13 12
22 23 23 23 23 22 24 24 23 24 22 21 20 18 16 13 11 10 9 9 7 7 7 8 8 10 7 6 6 2 5 4 2 3 5 3 4 5 4 4 4 5 4 6 6 7 7 6 6 3 6 8 4 6 4 7 9 4 7 5 5 7 7 5 6 7 6 6 9 9 11 12 10 5 7 8 9 10 10 10 10 10 11 11 11 11 11 13
22 23 23 24 24 22 24 23 24 24 23 21 20 17 15 13 10 9 8 8 7 5 6 6 6 9 6 5 3 8 2 2 2 3 4 4 5 4 2 1 3 2 3 5 6 7 5 5 3 2 4 6 7 9 1 7 6 6 7 7 7 7 6 6 6 7 7 6 5 9 10 10 8 6 9 10 10 10 11 11 11 10 11 10 11 12 11 11
20 22 23 24 24 23 24 24 23 23 22 22 18 17 15 12 8 7 7 6 5 5 4 2 3 3 6 6 9 8 5 1 0 1 5 5 4 2 1 1 3 4 4 4 5 4 5 5 4 5 2 6 5 8 7 4 4 6 6 8 7 8 7 5 7 7 5 6 7 9 11 9 7 8 13 12 10 10 10 11 11 11 11 11 11 11 11 11
21 21 22 24 25 24 23 23 23 24 22 20 18 17 14 9 5 5 4 4 3 2 2 1 5 2 5 3 8 6 2 0 2 3 3 4 2 1 1 1 2 4 4 3 3 3 3 4 6 2 4 4 6 3 8 4 7 6 5 1 7 7 7 6 4 5 7 7 7 10 6 6 8 11 12 11 10 11 11 10 10 9 10 10 10 10 10 10
20 21 22 23 25 24 22 23 23 22 21 20 19 16 12 9 5 1 3 3 2 2 1 1 4 3 4 9 4 4 1 2 3 5 1 2 5 5 2 2 0 2 1 2 1 1 3 3 3 5 1 2 6 6 9 6 7 7 4 6 3 7 6 7 4 7 8 7 7 9 6 5 9 11 12 11 12 11 10 10 10 10 10 9 9 9 10 11
22 22 22 23 25 25 22 23 22 21 20 20 17 13 10 8 4 2 3 5 2 2 2 6 3 4 3 7 2 3 1 4 3 6 4 2 1 6 4 2 2 2 1 0 1 1 2 2 4 7 5 3 7 8 7 6 5 2 8 5 3 7 9 8 5 5 6 11 8 9 7 4 11 12 12 11 11 10 10 10 10 10 10 10 9 9 10 10
22 22 22 23 24 25 25 22 22 21 20 19 16 10 7 4 1 3 2 4 6 5 4 5 3 5 1 7 5 2 4 1 6 5 4 3 2 3 3 1 2 3 4 3 1 1 1 2 2 3 6 6 7 7 5 6 6 6 8 3 2 4 5 5 6 4 1 6 9 9 4 5 9 12 12 11 11 11 10 10 10 11 11 9 9 8 8 9
22 23 23 23 23 24 23 24 22 21 19 17 14 5 2 2 3 3 6 8 4 4 3 3 2 3 2 5 3 3 5 5 3 1 3 3 2 2 2 2 4 2 3 5 4 4 3 5 4 5 4 5 3 5 5 5 4 4 3 4 1 7 1 1 7 3 2 5 6 6 7 5 8 14 13 12 11 11 10 11 11 9 8 8 8 8 8 8
22 23 23 22 23 22 24 24 24 21 19 18 10 5 2 2 2 4 4 5 2 2 3 3 3 3 10 4 3 7 5 4 5 3 2 3 1 2 1 2 3 3 6 7 6 7 4 4 8 3 6 5 5 6 6 4 4 2 3 3 4 6 3 6 4 4 5 3 8 6 8 5 10 14 13 12 11 10 10 10 10 9 9 8 7 7 8 8
22 23 23 22 23 23 24 25 24 22 19 17 8 5 4 3 5 6 4 3 4 4 4 3 2 2 9 7 2 2 4 4 3 4 3 1 3 2 3 0 2 7 6 7 8 6 5 3 5 5 7 7 6 3 4 5 3 3 4 4 4 6 4 3 3 2 4 5 5 3 6 6 10 13 13 12 11 10 10 9 9 9 8 8 7 7 7 7
23 23 23 23 23 22 24 25 24 23 18 11 2 3 5 3 5 3 3 0 6 7 5 5 2 3 3 3 6 6 2 4 4 4 4 2 4 3 2 1 4 6 5 3 8 4 3 7 5 3 2 3 5 4 6 4 3 2 3 5 6 4 5 2 2 2 1 6 2 4 4 5 10 12 13 12 11 9 9 10 9 9 8 7 7 7 7 6
23 23 23 24 25 24 25 25 24 22 18 7 8 3 5 8 4 5 6 4 4 3 4 3 4 5 6 6 5 6 2 7 3 5 4 2 5 5 1 5 6 7 1 3 2 4 7 5 2 5 6 5 4 2 1 1 2 5 5 5 5 3 6 4 1 3 2 7 1 3 4 4 8 11 12 11 12 11 12 11 10 10 8 7 8 7 6 5
23 23 23 23 23 24 23 25 23 19 17 7 5 7 6 8 4 5 5 5 5 3 1 2 1 1 3 2 3 3 7 5 8 6 3 6 2 7 5 5 3 2 4 4 4 7 7 1 6 6 5 4 4 2 1 1 2 3 6 4 6 4 1 3 3 4 2 6 2 4 5 4 7 9 11 11 12 10 10 10 10 10 9 7 7 6 5 5
23 23 24 24 24 24 21 24 19 16 7 4 7 6 6 6 5 3 5 4 4 2 2 4 2 6 5 5 4 4 2 7 6 8 8 7 2 7 4 3 3 3 5 6 4 4 3 5 7 5 2 4 5 2 1 2 4 4 4 5 6 5 6 3 8 3 4 5 3 6 6 4 6 6 9 10 12 10 9 10 10 9 9 9 9 7 7 5
23 24 24 25 25 24 24 22 21 10 3 5 8 7 3 5 5 3 5 1 5 7 6 5 4 6 7 5 4 5 6 5 4 8 8 7 6 2 3 6 1 1 2 2 6 3 7 8 4 0 2 3 3 2 3 5 4 2 4 6 8 4 3 7 2 3 3 2 4 5 5 5 8 9 9 10 8 9 10 10 10 8 7 7 6 7 6 7
23 23 24 25 25 26 25 22 4 4 2 3 6 5 4 4 4 3 5 3 3 5 2 4 2 6 5 2 3 4 7 7 8 5 5 8 6 3 7 1 5 4 2 2 4 5 8 6 1 2 4 3 3 4 3 5 7 3 4 5 7 6 8 4 4 6 6 6 7 5 5 5 7 9 9 10 10 9 12 12 10 9 9 9 8 7 6 5
22 23 24 24 25 24 24 5 4 4 4 3 4 4 4 5 2 3 4 3 6 6 4 4 3 3 3 2 4 2 6 5 4 5 5 5 4 6 5 4 7 4 2 0 3 5 6 2 3 2 3 2 2 3 4 5 5 7 6 3 3 6 6 6 6 6 7 7 5 6 7 2 8 8 9 9 12 14 10 11 8 9 9 9 8 8 6 6
22 23 24 21 21 23 7 3 5 5 4 4 3 5 5 4 1 4 4 4 3 4 5 5 4 5 4 4 5 3 6 6 4 4 4 6 3 3 6 6 5 3 1 2 5 5 3 4 4 1 3 2 6 3 5 5 7 3 5 3 5 6 7 7 8 7 7 5 5 7 6 8 6 7 10 9 10 9 8 9 8 9 9 10 8 7 6 5
23 22 22 21 19 15 3 6 7 2 7 4 5 6 6 0 4 4 4 1 4 3 4 3 6 1 3 2 3 3 8 3 5 5 3 5 5 3 5 7 7 4 2 5 2 6 0 5 2 3 2 6 4 7 3 4 6 6 4 2 4 6 5 6 7 7 4 5 7 8 5 7 6 3 6 7 10 14 13 12 11 13 13 11 9 8 8 6
22 22 21 20 21 13 6 3 5 6 5 5 6 7 1 3 5 4 3 2 3 1 2 2 2 3 3 4 3 3 3 3 4 4 2 2 7 6 2 5 3 3 2 6 1 7 5 5 4 4 7 3 6 5 3 5 5 6 2 4 3 3 6 6 7 7 3 6 8 2 4 5 7 6 5 7 10 11 11 12 13 13 14 10 10 9 8 6
20 22 22 19 14 5 3 2 4 3 3 5 6 4 2 5 4 5 2 3 3 3 3 3 4 5 5 2 6 4 2 5 3 2 5 2 4 6 5 2 2 3 4 2 5 7 7 4 3 5 5 5 3 3 2 2 3 3 4 6 4 5 3 3 4 5 5 6 8 4 3 3 6 1 2 5 4 5 6 5 7 9 9 9 9 9 7 7
19 22 20 15 4 4 3 2 5 2 4 5 6 3 4 5 3 0 2 4 3 5 3 2 5 3 2 2 3 4 5 3 4 3 5 4 5 3 4 5 5 3 3 5 5 7 5 5 4 4 2 1 3 3 5 2 2 5 4 5 4 4 3 5 3 3 5 5 6 1 1 5 7 1 3 3 2 2 2 5 6 7 9 9 9 8 7 5
20 20 19 9 4 4 4 6 7 4 5 7 6 4 4 3 2 2 2 3 6 5 6 4 4 3 3 4 5 5 3 4 5 4 4 3 3 2 6 6 5 4 2 2 4 5 6 2 6 6 3 5 2 8 7 6 6 7 5 5 4 3 2 3 3 4 5 3 4 2 1 5 6 4 3 3 5 5 6 5 4 7 9 9 7 5 3 3
21 19 20 7 5 3 4 5 5 5 6 6 4 4 4 1 2 2 3 2 3 5 4 3 4 2 2 2 6 3 2 4 3 3 1 2 1 7 5 6 5 4 6 2 1 3 4 5 6 6 4 3 5 8 2 4 2 6 6 5 5 4 2 4 4 2 5 5 2 1 2 7 3 1 2 3 2 3 5 5 5 6 8 9 8 5 5 4
21 18 6 4 6 4 4 4 4 5 6 3 4 5 3 1 3 3 2 3 5 1 2 3 1 3 3 3 5 6 1 4 3 2 4 0 3 1 5 5 4 2 4 0 3 4 3 5 5 3 1 3 2 6 5 6 6 4 4 7 5 3 3 5 3 4 4 4 4 1 5 2 5 4 1 4 3 3 4 5 5 6 8 7 6 5 5 4
25 13 5 2 5 6 6 4 3 4 5 4 5 3 1 3 1 2 3 3 3 1 1 1 3 2 5 5 4 4 4 1 3 2 0 4 1 2 3 4 5 5 2 5 4 5 4 5 6 5 4 2 4 4 4 4 6 1 3 4 6 2 3 6 5 6 6 5 4 5 3 3 3 2 3 2 4 4 4 6 7 8 8 6 5 5 5 5
15 3 3 3 2 2 2 2 3 4 5 5 3 1 3 4 3 1 4 4 1 3 2 3 1 1 1 3 3 3 3 4 4 5 2 2 3 2 3 3 4 7 7 4 3 5 3 2 7 6 3 5 6 3 3 5 4 4 6 2 6 4 5 3 3 1 3 6 3 2 5 2 4 7 5 5 5 5 5 7 8 9 8 6 6 5 6 5
2 3 3 2 2 5 2 3 3 5 4 5 1 3 4 4 6 3 3 5 4 5 4 4 3 4 1 2 2 3 4 4 2 5 1 0 3 3 2 5 3 3 6 7 1 1 7 4 5 4 5 4 3 3 4 5 5 6 4 6 2 1 5 3 4 2 4 4 1 3 5 6 4 1 5 7 6 7 7 8 8 9 9 8 6 5 4 3
5 2 2 2 6 5 2 3 4 5 5 1 4 5 1 3 3 4 4 2 2 4 4 3 3 4 1 3 3 5 6 7 6 3 3 1 3 2 1 1 4 5 5 1 5 3 3 4 7 3 2 6 3 3 4 4 3 6 6 3 7 1 4 4 2 3 4 3 3 0 5 5 4 1 5 8 7 8 8 8 9 9 8 8 7 7 6 5
3 3 2 5 4 6 2 3 4 5 2 4 5 4 3 4 3 4 4 3 2 3 3 5 3 2 4 2 4 1 6 6 3 3 4 2 2 1 3 4 4 3 0 3 3 3 2 5 4 5 4 3 4 4 4 5 7 3 4 4 2 5 4 2 2 5 3 5 3 1 4 1 4 4 2 2 7 7 8 8 9 8 8 7 6 5 6 6
3 4 2 3 5 6 1 3 4 2 1 3 3 5 1 3 5 4 3 2 1 4 3 1 2 0 0 3 4 4 3 4 5 3 4 2 1 4 1 1 3 3 1 1 2 1 1 0 4 8 2 3 6 4 2 3 2 3 4 2 3 2 2 4 2 3 4 5 3 4 4 2 6 6 5 2 2 6 7 7 7 8 7 7 5 3 2 1
1 3 3 4 9 5 3 4 1 4 4 4 4 5 2 3 2 5 4 1 1 2 4 2 1 3 3 2 1 2 2 2 2 1 3 3 4 2 4 3 1 1 2 5 3 1 2 2 4 2 4 6 4 5 5 2 3 5 5 2 5 3 2 4 1 4 2 3 4 5 5 3 7 4 4 3 2 3 5 7 6 7 7 6 4 4 3 2
4 2 3 8 9 5 6 2 4 2 1 3 4 1 4 3 1 4 3 3 2 2 1 0 2 1 0 2 3 1 4 3 1 2 1 4 4 4 4 1 1 3 6 3 6 3 3 5 4 3 3 4 5 5 3 1 2 4 5 4 5 2 3 3 5 2 3 1 4 4 4 1 6 5 3 2 2 4 3 5 6 6 5 5 5 4 2 2
2 3 2 6 7 6 2 6 3 1 4 4 2 3 1 1 2 2 1 2 1 1 1 1 3 3 1 3 1 2 2 3 3 3 3 1 1 4 4 1 1 3 6 1 3 3 2 4 2 2 1 4 4 4 3 3 3 6 5 3 3 2 3 4 3 3 5 2 3 2 4 2 6 4 1 1 2 4 3 4 6 6 4 5 5 4 4 3
1 1 2 4 6 3 4 1 3 3 5 4 2 6 2 3 4 3 3 5 4 2 1 0 3 3 2 1 2 4 1 2 2 3 1 2 1 4 2 2 4 2 5 5 6 4 4 1 5 3 2 3 7 5 6 2 4 5 4 1 1 1 2 4 5 2 5 2 3 5 5 2 5 3 1 1 3 5 6 6 6 6 5 5 5 4 3 3
1 1 0 4 6 3 1 3 2 3 5 5 5 5 4 3 4 4 3 5 2 3 3 1 3 1 0 1 1 1 1 3 4 0 2 3 1 4 4 3 3 2 2 3 3 0 3 3 3 4 4 3 3 2 1 0 1 2 1 2 3 2 3 3 3 1 7 3 1 4 5 4 5 1 0 1 2 3 4 6 7 6 6 6 5 4 4 4
3 1 2 3 3 5 5 1 3 2 5 5 3 3 1 3 4 2 3 4 4 1 3 1 2 1 1 3 3 3 4 2 4 2 3 2 2 3 3 2 4 2 4 4 3 1 2 1 4 3 4 4 3 5 3 4 2 4 1 3 3 3 4 3 4 6 4 2 6 4 5 5 9 7 5 2 2 3 5 6 7 7 8 7 5 4 4 4
2 1 0 1 4 5 5 2 2 1 2 1 1 1 4 1 2 4 2 1 3 3 1 2 2 2 0 3 2 3 2 4 4 5 5 5 3 2 3 1 4 4 9 5 4 3 3 5 1 4 4 6 6 6 4 5 4 4 4 4 2 4 2 3 5 4 3 6 6 7 4 1 8 8 4 4 2 3 4 5 6 6 5 6 5 4 5 5
2 2 1 3 3 3 3 3 2 4 3 3 3 1 2 3 3 2 3 2 1 1 3 4 1 2 2 3 3 3 1 3 2 3 3 4 4 3 2 5 3 7 9 4 3 4 5 4 3 4 5 6 6 8 6 6 6 5 5 5 5 4 5 7 6 5 1 5 8 6 7 7 9 9 6 4 3 3 3 4 5 4 4 3 4 6 6 5
3 3 2 2 2 3 4 5 2 2 4 0 3 3 3 4 3 2 2 1 3 2 3 0 1 2 2 1 3 2 2 3 2 2 4 5 5 4 5 2 3 4 6 4 4 1 4 5 4 6 7 6 7 7 6 8 7 8 8 8 5 8 9 9 6 6 3 7 9 8 10 12 12 10 8 4 2 2 2 2 3 5 6 6 6 6 5 5
3 2 3 1 2 5 3 3 2 3 3 1 2 3 2 3 3 4 3 2 1 2 1 2 1 2 2 0 1 3 3 4 5 4 3 6 6 4 5 5 2 4 4 4 3 2 4 1 2 5 7 8 4 5 5 6 7 9 9 4 2 1 2 4 2 2 2 7 7 10 11 11 10 4 3 1 2 2 3 6 6 6 5 6 6 6 5 5
2 3 2 3 4 3 3 3 4 3 2 4 4 4 4 3 2 1 2 2 2 2 1 1 1 1 2 2 2 2 3 3 3 5 5 5 7 4 4 2 3 4 3 3 5 4 5 3 2 5 5 7 2 5 5 7 9 7 6 4 4 4 3 5 4 6 6 5 3 1 4 7 2 5 2 3 4 5 6 5 5 5 5 5 6 5 6 4
1 1 2 4 1 1 2 3 2 3 2 2 2 5 3 4 2 2 2 1 0 2 3 3 1 5 3 4 3 2 3 4 6 7 7 7 8 8 7 8 8 6 5 5 2 5 5 5 3 3 6 6 1 6 7 10 8 7 4 4 4 4 1 1 3 5 5 3 3 4 4 6 4 0 3 4 4 5 5 5 4 5 4 5 5 5 5 3
Wind_Direction
355 354 352 351 349 348 348 347 345 342 339 337 334 328 326 324 322 320 319 319 317 316 317 318 321 322 323 322 322 321 318 272 216 195 102 60 37 72 57 116 141 164 206 241 156 207 182 167 148 180 192 206 101 148 69 156 312 228 203 156 145 114 119 128 96 66 116 121 113 109 96 116 111 116 100 116 92 87 91 80 90 81 73 69 69 56 61 58
351 351 349 349 348 346 345 344 343 342 339 336 333 329 324 322 320 320 318 318 319 316 317 321 321 322 323 322 320 324 307 269 141 78 60 54 56 109 102 141 149 200 233 249 247 208 166 144 140 190 184 125 199 92 241 110 276 226 139 155 110 109 83 85 94 108 138 102 103 103 110 101 96 132 142 161 119 124 105 98 105 93 87 81 72 62 63 63
348 347 347 346 345 345 343 342 342 341 338 336 332 329 324 321 320 320 318 318 318 318 318 319 321 322 321 321 322 318 299 222 132 72 69 73 83 102 104 130 213 195 259 329 313 300 309 93 146 207 146 132 242 124 247 109 256 82 264 120 102 97 108 88 88 82 75 119 119 118 100 104 110 126 180 138 125 129 113 117 112 89 77 67 63 62 60 58
345 344 344 344 342 341 340 340 339 339 337 335 332 328 325 321 318 317 317 315 315 316 317 317 320 322 321 317 324 311 264 212 89 66 76 92 86 69 150 215 241 235 268 302 323 288 309 185 188 239 153 157 122 168 148 111 259 140 223 126 121 130 125 97 93 90 98 88 114 116 123 117 122 130 170 132 128 102 90 46 71 76 70 70 67 61 57 58
344 344 342 342 342 340 338 337 338 337 336 333 330 327 323 317 315 314 312 311 312 313 316 318 320 321 320 312 313 273 276 220 84 17 70 77 99 106 211 232 255 269 302 41 189 148 197 179 181 190 201 124 142 138 90 110 6 142 55 82 112 135 101 104 91 95 98 88 114 140 140 109 115 94 92 204 178 109 82 77 67 65 59 53 56 57 60 59
343 342 342 341 339 339 338 336 336 336 335 332 328 322 315 313 311 309 308 306 308 311 315 318 321 323 317 314 299 257 257 99 72 88 56 93 127 154 199 230 255 271 263 229 207 143 189 161 201 167 150 151 155 140 109 90 253 134 122 115 100 41 99 109 112 96 167 148 133 125 106 131 134 93 58 64 80 90 82 82 74 70 70 71 64 66 65 64
342 341 340 339 338 335 336 336 335 335 332 330 326 318 319 315 314 307 305 303 305 309 315 319 322 323 320 301 257 251 63 84 201 68 95 126 143 170 192 224 227 260 272 204 126 135 116 138 224 121 144 113 123 109 116 147 224 180 125 134 110 73 72 80 96 133 128 130 102 107 145 141 141 106 84 85 83 90 91 87 88 87 88 86 79 69 67 66
342 341 340 339 336 334 333 335 335 333 331 329 325 321 319 316 311 304 299 300 301 306 313 320 323 319 333 308 260 143 71 62 61 82 130 142 173 172 202 225 277 314 43 37 36 72 49 71 88 167 175 150 122 132 139 145 175 124 129 142 116 113 92 110 115 127 107 106 118 139 135 126 113 111 111 94 99 102 103 103 102 101 93 85 80 76 72 69
342 340 339 338 336 333 334 334 334 333 332 330 327 321 315 311 304 299 295 293 295 302 312 318 320 316 302 275 287 121 68 52 28 107 161 173 175 181 221 241 360 26 52 47 21 38 286 76 108 318 126 125 145 132 182 170 114 73 105 136 136 112 117 125 128 127 130 123 139 129 118 113 109 109 93 108 109 111 112 111 108 104 96 87 81 77 75 69
342 340 339 338 336 334 334 334 333 333 333 331 328 321 312 306 300 290 286 285 292 297 307 315 314 313 285 269 251 89 76 39 110 171 202 194 189 203 213 14 352 28 52 43 46 32 35 54 19 44 78 101 188 121 157 277 95 126 130 124 129 122 123 148 148 127 134 135 150 137 135 130 137 180 120 116 122 126 123 116 115 107 98 92 87 80 71 69
344 341 339 337 335 334 333 332 334 333 333 331 329 319 311 301 290 279 273 278 282 295 297 304 328 299 290 284 288 86 77 225 95 155 199 210 233 256 63 18 345 9 20 74 46 24 34 25 11 101 228 98 155 132 258 69 122 125 130 131 129 129 125 129 140 142 152 144 194 146 137 147 152 227 138 138 139 139 129 125 121 110 100 93 86 80 73 68
343 342 339 337 335 334 333 334 335 334 332 332 330 324 318 304 281 264 260 263 267 282 295 303 320 283 284 284 65 74 160 348 296 170 194 214 248 315 16 11 333 357 343 50 63 30 12 8 291 260 112 183 129 135 101 120 161 157 178 165 141 147 126 146 152 160 203 133 185 152 146 156 179 115 125 137 143 145 135 126 119 110 102 95 89 82 73 69
342 341 340 336 334 333 331 331 335 336 331 332 333 330 328 322 293 260 245 233 228 252 285 7 259 263 294 115 58 99 187 5 225 229 220 226 237 169 52 347 331 341 343 335 54 36 357 338 312 133 101 247 111 325 102 186 135 172 218 265 177 195 142 121 146 162 186 137 174 187 199 150 117 125 136 144 148 146 141 132 123 112 106 99 93 86 80 76
341 339 340 337 334 332 330 331 334 334 333 332 337 333 331 340 327 301 191 255 122 265 18 174 265 256 263 80 106 97 189 223 202 196 173 195 228 136 175 128 51 343 353 308 351 4 315 325 315 72 98 291 127 145 163 144 179 202 136 250 211 220 119 127 161 165 189 143 196 223 233 135 137 141 147 152 155 158 146 135 123 115 105 99 91 90 88 79
340 338 339 337 334 332 330 330 330 334 334 333 333 336 339 350 0 166 162 179 216 169 200 240 243 255 163 88 123 108 133 263 200 48 29 270 236 155 142 165 109 65 61 227 124 193 286 276 220 192 136 74 130 184 166 178 178 168 206 197 120 272 118 117 153 181 241 160 215 216 236 206 154 150 154 160 164 161 146 137 128 120 115 108 102 95 88 81
340 338 338 337 334 332 331 330 331 332 335 333 334 333 342 339 182 139 174 80 122 153 202 239 198 285 296 100 81 163 224 125 43 10 40 315 318 17 43 347 106 135 173 127 182 186 212 245 258 39 135 162 199 209 170 183 177 185 256 197 198 268 127 164 142 151 12 176 195 235 264 144 163 157 161 168 167 165 150 139 129 124 121 116 108 103 98 94
339 338 337 335 333 332 330 331 329 330 334 331 328 305 320 313 180 160 130 152 161 209 260 331 313 273 29 63 231 176 49 31 352 34 19 45 307 7 265 199 186 140 153 145 170 203 157 212 123 197 237 229 180 212 204 223 179 204 274 275 111 266 159 198 132 125 178 233 226 230 254 238 154 165 164 169 174 167 156 144 138 132 117 115 111 105 99 96
339 337 336 334 332 332 331 331 329 328 332 329 313 315 317 95 142 187 165 213 170 233 257 267 303 262 107 200 66 35 337 8 0 2 35 43 301 167 262 251 163 207 166 150 160 204 174 178 210 166 176 180 191 213 248 232 249 252 201 249 183 225 278 311 248 103 259 217 260 215 247 216 153 164 169 170 174 174 158 151 143 132 130 126 116 104 96 94
339 336 335 334 332 333 333 330 328 327 331 316 278 252 265 263 248 254 269 176 220 187 197 88 303 329 58 43 48 325 356 4 295 261 102 83 111 138 120 248 242 198 182 209 123 215 177 171 221 181 189 183 198 260 258 34 360 286 272 278 303 287 188 214 96 108 288 256 249 248 256 205 167 167 168 171 174 179 159 145 142 139 136 132 124 115 111 104
338 336 334 333 333 332 333 331 327 324 332 326 215 217 206 195 186 161 179 212 33 22 2 4 328 317 226 41 13 349 285 248 207 76 96 80 223 190 210 245 177 227 219 227 139 212 226 200 190 184 161 101 58 13 24 38 340 328 251 274 271 305 278 72 212 99 243 270 284 296 271 200 182 173 170 170 172 168 157 161 156 151 148 143 133 119 109 96
337 335 333 332 333 333 331 329 324 319 323 295 284 321 34 6 313 92 351 48 41 24 345 17 347 338 356 337 341 342 176 107 51 88 39 330 263 272 96 235 199 195 126 29 180 125 234 238 89 56 52 58 64 62 74 122 268 296 298 282 265 205 285 92 94 169 193 272 206 247 230 195 173 170 170 170 175 174 175 172 168 158 151 144 136 132 122 123
336 334 332 332 331 332 330 327 321 315 304 262 1 55 63 34 0 2 300 133 86 45 288 350 284 270 120 359 345 302 275 147 98 76 96 288 351 279 79 291 325 39 136 175 168 183 211 188 82 73 76 101 105 87 58 314 215 228 285 301 286 263 324 152 173 186 211 254 265 235 228 173 159 176 175 179 187 179 183 180 174 161 154 155 141 125 128 120
336 333 332 332 332 330 330 322 317 311 307 31 45 51 44 360 332 300 260 293 85 45 36 49 77 42 83 108 51 258 269 52 60 54 21 312 120 30 350 0 41 90 172 206 217 191 191 109 96 94 118 128 113 120 113 190 250 278 265 253 271 31 305 247 164 180 193 253 256 230 242 157 166 175 185 192 192 185 182 181 174 170 166 164 158 153 144 152
335 334 332 333 332 330 326 321 306 286 36 20 58 51 23 342 334 245 244 296 101 94 41 48 1 29 41 355 41 315 37 77 322 53 21 345 37 344 292 12 351 215 89 324 304 9 88 89 80 1 225 234 120 144 239 263 263 151 302 303 287 312 271 280 47 210 170 200 253 221 240 209 186 186 185 188 189 181 181 178 179 178 175 160 150 154 166 155
334 335 333 332 332 329 321 317 298 15 305 234 85 58 3 333 311 266 262 166 189 102 165 143 256 53 24 222 229 274 96 94 42 30 13 359 24 238 43 0 287 85 39 23 186 124 93 70 14 211 171 179 201 175 34 332 282 292 147 324 329 324 288 240 234 234 225 220 212 227 257 238 196 200 200 175 188 187 187 187 183 179 179 164 174 172 167 180
334 334 334 332 332 329 311 297 55 345 286 46 29 12 344 325 289 240 262 202 103 35 215 93 260 76 297 104 339 23 231 94 29 39 11 8 309 348 209 109 334 74 94 83 16 45 74 107 267 187 137 140 326 18 42 291 303 275 82 329 319 293 289 279 242 240 250 282 127 215 269 295 153 203 197 192 195 202 195 206 190 194 194 183 184 177 182 188
333 333 332 332 332 334 310 61 346 280 258 84 29 339 332 306 216 169 233 140 97 24 358 55 267 79 292 23 325 243 237 89 129 69 51 15 327 68 294 60 185 94 20 317 206 121 132 126 151 165 189 232 231 161 81 319 299 2 45 20 270 265 254 255 263 241 281 67 174 224 251 276 250 203 189 192 219 186 201 155 185 243 222 191 183 182 175 186
330 331 331 331 329 330 320 313 305 352 34 5 332 327 320 261 175 190 260 231 57 277 358 15 17 7 290 353 286 356 62 122 203 86 41 8 272 185 9 40 6 66 147 255 247 97 75 133 170 175 230 254 50 50 45 332 304 23 17 305 282 279 283 274 255 258 281 290 256 204 221 258 267 110 160 190 221 206 187 196 202 200 215 192 186 186 178 190
328 329 329 328 321 309 270 275 307 13 9 349 321 319 337 163 209 265 275 85 57 339 97 53 129 213 25 215 99 60 100 15 353 52 73 201 41 317 54 64 78 103 206 260 342 147 94 9 53 344 282 59 74 63 30 348 297 77 330 248 251 245 252 256 256 254 249 258 270 289 180 274 284 160 205 198 236 229 217 197 212 216 224 195 184 181 179 174
325 328 327 327 312 201 202 217 240 6 315 328 322 317 178 192 225 221 188 76 330 118 332 332 303 343 304 232 85 50 102 77 52 80 55 23 63 91 72 276 280 112 102 110 55 71 97 85 16 25 21 29 60 86 31 322 344 326 226 244 214 227 237 219 257 289 274 245 257 116 92 293 282 312 242 206 237 259 229 190 188 195 192 186 179 179 173 179
323 323 323 326 291 12 288 213 72 7 325 313 317 267 221 226 261 281 92 56 261 38 246 22 22 285 63 331 99 94 98 58 78 281 137 180 114 121 146 186 216 157 116 121 114 133 161 156 202 68 14 57 281 198 180 189 230 236 246 294 274 219 229 230 223 228 254 259 89 279 158 208 263 153 227 82 80 222 246 214 182 188 176 180 172 181 176 166
322 318 318 307 274 305 299 8 353 335 321 314 293 217 228 195 92 37 96 124 254 36 13 0 38 22 75 83 63 28 32 116 41 29 16 20 38 2 30 355 359 312 168 347 126 187 182 148 84 129 62 337 202 276 176 198 204 231 250 240 274 280 239 270 209 230 224 291 72 57 253 253 235 294 48 172 219 204 222 242 211 189 186 165 161 148 145 169
320 319 310 263 219 227 248 310 319 310 308 290 256 227 245 256 85 94 100 313 88 336 79 301 17 37 72 235 57 29 25 13 52 76 346 98 288 90 41 23 5 346 336 60 296 222 127 119 189 123 176 38 308 282 321 236 5 334 324 339 284 294 299 290 284 340 295 119 53 338 8 260 315 146 54 313 196 203 192 217 220 185 159 161 152 185 187 191
316 318 304 160 216 258 309 290 281 299 295 268 243 228 280 44 82 352 356 44 60 107 313 6 58 123 38 41 50 354 97 71 316 63 286 153 257 107 130 82 341 338 315 274 287 8 285 191 142 284 194 27 23 10 6 325 306 5 342 294 322 311 316 287 284 287 339 346 120 119 247 2 300 70 331 65 85 167 171 193 166 148 157 159 167 176 196 209
312 295 244 209 236 243 244 259 262 261 276 245 227 259 96 96 109 106 98 70 93 3 61 302 265 151 112 108 49 52 350 74 53 295 250 301 49 340 17 68 53 341 333 286 76 269 304 321 75 40 48 351 58 47 348 327 265 175 335 274 258 2 356 286 10 320 329 322 274 150 291 2 329 135 125 141 131 155 166 167 166 165 165 167 176 188 213 215
302 141 212 205 277 27 268 222 217 229 267 238 243 41 55 27 85 344 51 338 303 318 33 216 273 200 53 96 109 23 121 299 67 282 128 339 55 13 77 32 22 13 348 338 28 298 236 205 101 100 81 66 57 30 55 334 301 46 251 310 19 358 284 281 198 10 248 247 260 28 276 253 167 174 156 167 161 160 169 168 177 169 172 184 204 209 216 222
342 293 197 7 25 359 329 222 220 251 253 260 259 101 53 91 15 34 40 338 356 322 259 260 89 337 2 39 23 38 72 245 73 315 37 148 162 108 107 94 9 6 16 326 256 71 299 45 128 160 153 100 44 37 61 34 338 284 285 46 37 302 314 280 311 155 237 275 9 303 310 309 303 109 165 171 199 174 181 180 187 179 186 203 216 213 219 242
321 314 296 352 9 340 311 214 247 250 255 180 72 72 204 95 74 7 12 300 227 211 277 357 90 299 38 302 68 18 7 292 32 298 355 346 40 42 81 42 77 6 346 309 301 71 315 264 149 188 2 126 159 205 168 104 7 1 15 35 276 220 204 156 258 293 313 310 319 157 317 277 295 60 185 187 204 189 193 195 196 200 202 209 198 199 207 215
264 268 200 50 6 341 317 206 242 263 213 110 124 142 60 61 53 24 13 342 304 295 279 52 340 104 322 358 38 46 9 349 355 3 314 71 291 115 33 344 92 52 132 296 296 65 195 300 123 155 213 132 230 259 260 148 135 114 170 169 37 267 342 308 14 322 290 299 283 126 266 350 76 27 330 235 191 197 195 200 207 204 200 204 209 200 196 195
258 231 110 49 5 334 249 212 253 215 229 105 115 70 66 89 57 50 60 289 42 292 42 59 60 46 220 44 333 357 56 329 348 47 305 70 328 147 68 125 352 88 61 304 3 303 349 118 309 122 147 192 230 204 306 358 320 189 224 331 149 43 354 291 246 326 333 323 320 334 313 55 55 15 356 343 229 199 204 211 208 205 203 201 200 200 213 202
264 279 85 16 355 332 224 246 33 64 85 80 64 100 116 55 16 82 73 206 198 25 343 353 348 332 20 259 177 23 332 349 309 330 348 119 307 138 95 31 300 357 185 212 191 134 279 229 289 299 195 223 78 56 40 7 353 321 330 343 341 325 270 277 124 148 300 288 342 303 314 326 80 35 9 351 335 248 216 221 215 201 201 199 196 206 217 213
251 216 69 360 347 311 260 127 71 337 155 121 99 25 94 320 227 61 114 128 285 97 140 53 67 333 253 338 9 97 317 324 16 308 75 340 94 327 91 13 278 321 293 8 7 55 324 315 280 262 312 0 71 76 48 55 253 326 308 357 346 11 285 296 314 38 263 166 314 291 302 27 74 73 14 345 301 283 258 229 224 202 205 203 211 209 185 228
241 38 55 334 350 319 279 93 121 141 84 72 151 132 168 159 14 76 322 15 196 321 174 8 34 278 75 331 299 295 319 317 323 349 23 300 65 47 74 112 272 249 266 122 199 132 208 268 277 235 261 141 136 129 142 166 228 245 220 263 254 314 1 331 332 354 307 294 257 269 283 51 105 107 64 228 273 270 252 238 224 203 205 213 226 204 210 196
44 35 96 21 346 301 255 130 126 107 115 124 158 98 61 44 12 70 42 60 10 26 4 91 150 21 11 333 277 294 21 287 173 280 252 281 37 75 111 196 222 262 311 39 323 98 256 116 291 305 256 194 178 184 200 180 242 258 292 90 326 306 315 310 296 289 281 322 322 307 295 11 112 110 164 235 241 239 223 206 220 221 209 233 238 218 214 212
149 140 282 21 12 333 272 24 121 138 129 141 149 138 148 147 51 7 5 60 23 35 268 74 21 11 95 26 296 233 145 309 306 127 310 292 25 113 92 180 211 294 61 45 345 140 274 353 290 306 313 316 312 290 354 220 241 310 298 214 197 162 149 237 259 252 292 88 227 270 283 351 21 122 304 220 258 243 216 207 203 228 244 242 238 228 227 228
206 195 132 96 27 82 70 9 1 124 140 148 135 91 248 136 136 93 288 91 13 86 16 5 130 250 46 221 239 252 247 185 271 316 270 288 259 136 91 174 204 253 110 134 185 242 308 331 295 313 316 327 340 325 11 302 298 277 270 238 231 189 198 252 285 269 311 31 288 278 255 305 319 335 343 329 242 251 209 199 214 219 229 245 251 238 236 237
328 275 39 137 119 77 94 102 108 245 134 312 175 154 161 150 110 144 342 216 67 358 125 13 359 262 127 287 318 272 276 263 227 263 278 288 328 0 134 257 164 157 140 156 200 263 273 279 215 278 289 306 318 308 320 275 282 263 280 274 255 158 174 210 253 303 28 306 278 66 29 320 312 327 338 326 272 244 246 236 228 234 242 248 237 228 226 242
244 88 304 14 293 121 159 107 50 95 79 259 88 260 160 178 184 176 150 66 104 12 296 170 165 53 12 354 310 280 288 280 257 278 281 276 276 251 232 169 212 148 192 193 178 259 293 295 75 270 267 286 299 296 288 272 267 263 240 187 198 170 152 191 229 259 267 274 293 358 335 303 297 316 337 309 315 269 250 242 246 260 264 247 243 244 245 247
348 89 56 311 258 75 39 76 20 90 115 340 116 224 174 216 184 73 349 153 185 113 322 1 274 69 55 29 302 288 310 286 264 294 307 296 294 299 279 218 152 177 209 206 206 298 288 276 294 266 285 277 289 287 277 272 276 275 275 260 213 167 206 211 239 262 230 243 273 306 306 292 290 297 303 305 289 289 263 251 242 237 243 252 254 253 254 258
146 195 138 229 70 102 108 153 160 215 175 147 228 137 236 200 191 153 168 265 204 141 233 238 146 94 90 100 301 304 351 303 314 300 343 306 282 267 288 293 292 176 234 240 217 161 265 269 145 278 284 276 273 275 269 270 283 280 282 279 131 155 246 247 307 288 26 289 268 274 280 283 280 277 291 150 192 223 237 239 244 251 255 251 255 254 259 272
20 353 341 183 147 104 143 165 195 214 214 183 229 145 208 175 166 40 104 349 317 313 319 284 29 164 176 252 272 346 28 345 326 313 307 287 287 328 305 337 299 286 235 231 239 183 215 274 233 269 285 287 203 276 277 286 287 276 266 258 169 149 237 193 208 202 193 217 97 180 253 256 253 119 174 169 195 215 230 237 238 242 243 248 257 268 271 274
269 81 253 288 185 196 201 130 177 209 215 102 6 148 222 140 81 208 153 85 1 1 344 309 279 284 198 229 267 29 357 326 307 305 299 288 282 279 262 268 277 280 279 263 217 262 245 263 264 274 280 279 355 275 301 304 295 262 239 249 206 194 257 76 247 185 202 155 189 243 277 2 21 138 273 209 207 226 239 244 246 247 259 270 260 268 281 279